DateTimeUTC,F1_A11,F1_S11,BsB_S11,BsG_S11,BsR_S11,BbsB_S11,BbsG_S11,BbsR_S11,BaB_A11,BaG_A11,BaR_A11,Tu_S11,T_S11,Uu_S11,U_S11,P_S11,T1_A11
2021-06-06T14:00:00Z,00000200,20000000,,,,,,,0000.12,-000.02,-000.04,20.4,26.3,07.7,05.4,0673.8,31.1
2021-06-06T14:01:00Z,00000200,20000000,,,,,,,0000.12,0000.18,0000.31,20.4,26.3,07.7,05.4,0673.8,31.2
2021-06-06T14:02:00Z,00000200,20000000,,,,,,,-000.01,-000.17,0000.03,20.4,26.3,07.7,05.4,0673.8,31.2
2021-06-06T14:03:00Z,00000200,60000000,,,,,,,0000.17,0000.65,0000.16,20.5,26.3,07.7,05.4,0673.8,31.2
2021-06-06T14:04:00Z,00000200,40000000,0000.43,0000.44,0000.54,-000.32,0000.34,-000.36,0000.81,0000.36,0000.46,20.5,26.2,07.8,05.5,0674.7,31.2
2021-06-06T14:05:00Z,00000200,00000000,0001.30,0000.37,0000.44,0000.19,0000.10,0000.13,0000.05,0000.17,0000.03,20.6,26.2,08.0,05.7,0674.8,31.2
2021-06-06T14:06:00Z,00000200,00000000,0000.87,0000.48,0000.53,0000.24,0000.48,0000.19,0000.49,0000.53,0000.37,20.6,26.2,07.9,05.6,0674.8,31.2
2021-06-06T14:07:00Z,00000200,00000000,0000.53,0000.47,0000.17,0000.64,0000.33,-000.18,0000.51,0000.26,0000.08,20.6,26.2,07.9,05.6,0674.8,31.2
2021-06-06T14:08:00Z,00000200,00000000,0000.95,0000.61,0000.65,0000.42,0000.44,0000.13,0000.44,0000.42,0000.44,20.6,26.2,08.0,05.7,0674.8,31.2
2021-06-06T14:09:00Z,00000200,00000000,0001.03,0000.75,0000.49,-000.05,0000.23,-000.04,0000.18,0000.29,0000.39,20.6,26.2,07.9,05.6,0674.8,31.2
2021-06-06T14:10:00Z,00000200,00000000,0000.80,0000.73,0000.32,0000.51,0000.35,0000.32,0000.48,0000.73,0000.18,20.6,26.2,07.9,05.6,0674.8,31.2
2021-06-06T14:11:00Z,00000200,00000000,0001.00,0000.60,0000.27,0000.75,0000.55,0000.30,0000.41,0000.26,0000.51,20.6,26.2,07.9,05.6,0674.8,31.2
2021-06-06T14:12:00Z,00000200,00000000,0000.82,0000.92,0000.36,0000.57,0000.55,0000.16,0000.39,0000.08,-000.13,20.6,26.2,07.9,05.6,0674.8,31.2
2021-06-06T14:13:00Z,00000200,00000000,0001.09,0000.66,0000.11,-000.22,0000.50,0000.50,0000.34,0000.47,0000.40,20.6,26.2,07.9,05.6,0674.7,31.2
2021-06-06T14:14:00Z,00000200,00000000,0000.44,0000.30,0000.48,0000.25,0000.29,0000.26,0000.18,0000.18,0000.17,20.6,26.2,07.9,05.6,0674.8,31.2
2021-06-06T14:15:00Z,00000200,00000000,0000.44,0000.56,0000.09,0000.87,0000.50,0000.14,0000.48,0000.42,0000.23,20.6,26.2,08.0,05.7,0674.8,31.2
2021-06-06T14:16:00Z,00000200,00000000,0001.02,0000.54,0000.36,0000.52,0000.22,0000.29,0000.10,0000.49,0000.63,20.6,26.2,08.0,05.7,0674.8,31.2
2021-06-06T14:17:00Z,00000200,00000000,0000.66,0000.58,0000.36,0000.50,0000.40,0000.08,0000.78,0000.19,-000.10,20.6,26.2,08.0,05.7,0674.7,31.2
2021-06-06T14:18:00Z,00000200,00000000,0000.23,0000.63,0000.18,0000.22,0000.32,0000.15,0000.15,0000.62,0000.34,20.6,26.2,08.0,05.7,0674.7,31.2
2021-06-06T14:19:00Z,00000200,00000000,0001.06,0000.39,0000.57,-000.06,0000.35,0000.21,0000.48,-000.00,0000.38,20.6,26.2,08.0,05.7,0674.8,31.2
2021-06-06T14:20:00Z,00000200,00000000,0000.68,0000.53,-000.06,0000.31,0000.30,0000.15,0000.30,0000.61,0000.26,20.6,26.2,08.1,05.8,0674.7,31.2
2021-06-06T14:21:00Z,00000200,00000000,0000.96,0000.54,0000.35,-000.16,0000.51,0000.12,0000.93,0000.53,0000.24,20.6,26.2,08.0,05.7,0674.7,31.2
2021-06-06T14:22:00Z,00000200,00000000,0000.81,0000.34,0000.36,0000.30,0000.62,0000.30,0000.44,0000.20,0000.73,20.6,26.3,08.2,05.8,0674.7,31.2
2021-06-06T14:23:00Z,00000200,00000000,0000.37,0000.32,0000.28,-000.04,0000.43,0000.19,-000.15,0000.44,-000.13,20.6,26.3,08.1,05.8,0674.7,31.2
2021-06-06T14:24:00Z,00000200,00000000,0000.62,0000.33,-000.04,0000.05,0000.31,0000.09,0000.32,-000.18,0000.17,20.6,26.3,08.1,05.8,0674.7,31.2
2021-06-06T14:25:00Z,00000200,00000000,0000.14,0000.25,0000.08,0000.24,0000.20,-000.04,0000.41,0000.35,0000.23,20.6,26.3,08.0,05.7,0674.7,31.2
2021-06-06T14:26:00Z,00000200,00000000,0000.05,0000.40,0000.19,0000.17,0000.17,0000.13,0000.42,0000.31,0000.09,20.6,26.3,08.1,05.8,0674.7,31.2
2021-06-06T14:27:00Z,00000200,00000000,0000.35,0000.31,0000.39,0000.08,0000.24,0000.15,0000.68,0000.75,0000.17,20.6,26.3,08.1,05.8,0674.7,31.2
2021-06-06T14:28:00Z,00000200,00000000,0000.31,0000.47,0000.09,0000.72,0000.35,0000.13,0000.28,0000.63,0000.67,20.6,26.3,08.3,05.9,0674.7,31.2
2021-06-06T14:29:00Z,00000200,00000000,0000.18,0000.31,0000.32,0000.56,0000.39,0000.18,0000.29,0000.12,-000.01,20.6,26.3,08.2,05.8,0674.7,31.2
2021-06-06T14:30:00Z,00000200,00000000,0000.72,0000.11,0000.09,0000.26,0000.53,-000.05,0000.41,0000.19,0000.66,20.6,26.3,08.2,05.9,0674.7,31.2
2021-06-06T14:31:00Z,00000200,00000000,0000.43,0000.41,0000.06,0000.74,0000.33,0000.08,0000.77,0000.60,0000.30,20.6,26.3,08.3,05.9,0674.7,31.2
2021-06-06T14:32:00Z,00000200,00000000,0000.28,0000.40,0000.22,0000.58,0000.34,-000.07,0000.20,0000.35,0000.24,20.7,26.3,08.3,05.9,0674.6,31.2
2021-06-06T14:33:00Z,00000200,00000000,0000.44,0000.23,0000.43,0000.62,0000.42,-000.03,0000.49,0000.22,0000.05,20.7,26.3,08.2,05.9,0674.6,31.2
2021-06-06T14:34:00Z,00000200,00000000,0000.13,0000.63,0000.19,0000.21,0000.29,0000.29,0000.18,0000.40,0000.13,20.7,26.3,08.4,06.0,0674.6,31.2
2021-06-06T14:35:00Z,00000200,00000000,0000.22,0000.39,0000.07,0000.13,0000.43,0000.04,0000.66,0000.55,0000.61,20.7,26.3,08.3,05.9,0674.6,31.2
2021-06-06T14:36:00Z,00000200,00000000,0000.87,0000.18,0000.10,0000.38,0000.14,0000.07,0000.02,0000.38,0000.09,20.7,26.3,08.3,05.9,0674.6,31.2
2021-06-06T14:37:00Z,00000200,00000000,0000.15,0000.25,0000.29,-000.23,0000.39,0000.22,0000.38,0000.21,0000.15,20.7,26.3,08.5,06.0,0674.6,31.2
2021-06-06T14:38:00Z,00000200,00000000,0000.61,0000.40,0000.05,0000.75,0000.36,0000.31,0000.82,0000.31,0000.47,20.7,26.3,08.3,05.9,0674.6,31.2
2021-06-06T14:39:00Z,00000200,00000000,0000.27,0000.20,0000.13,0000.26,0000.27,0000.32,0000.21,0000.41,0000.16,20.7,26.3,08.4,06.0,0674.6,31.2
2021-06-06T14:40:00Z,00000200,00000000,0001.09,0000.41,0000.27,0000.16,0000.36,0000.15,0000.32,0000.56,0000.37,20.7,26.3,08.6,06.1,0674.6,31.2
2021-06-06T14:41:00Z,00000200,00000000,0000.84,0000.28,0000.16,0000.67,0000.27,0000.38,0000.13,0000.07,0000.35,20.7,26.3,08.4,06.0,0674.6,31.2
2021-06-06T14:42:00Z,00000200,00000000,0000.40,0000.19,-000.00,0000.19,0000.18,0000.15,0000.89,0000.35,0000.19,20.7,26.3,08.4,06.0,0674.6,31.2
2021-06-06T14:43:00Z,00000200,00000000,0000.95,0000.45,0000.43,0000.25,0000.28,0000.13,0000.53,0000.44,0000.44,20.7,26.4,08.4,06.0,0674.6,31.2
2021-06-06T14:44:00Z,00000200,00000000,0000.07,0000.17,0000.06,-000.14,0000.19,0000.33,0000.14,0000.13,0000.39,20.7,26.4,08.4,06.0,0674.6,31.2
2021-06-06T14:45:00Z,00000200,00000000,0000.59,0000.27,0000.57,-000.15,0000.25,0000.25,0000.38,0000.65,0000.06,20.8,26.3,08.4,06.0,0674.6,31.2
2021-06-06T14:46:00Z,00000200,00000000,-000.25,0000.30,0000.12,-000.10,0000.28,-000.05,0000.84,0000.85,0000.82,20.7,26.3,08.5,06.1,0674.6,31.2
2021-06-06T14:47:00Z,00000200,00000000,-000.07,0000.47,0000.43,0000.08,0000.26,0000.13,0000.05,-000.10,-000.13,20.7,26.4,08.5,06.1,0674.6,31.2
2021-06-06T14:48:00Z,00000200,00000000,0000.81,0000.12,0000.11,0000.54,0000.59,0000.19,0000.29,0000.36,0000.29,20.7,26.4,08.3,05.9,0674.6,31.2
2021-06-06T14:49:00Z,00000200,00000000,0000.03,0000.22,0000.19,0000.20,0000.17,0000.34,0000.40,0000.30,0000.23,20.8,26.4,08.5,06.1,0674.6,31.2
2021-06-06T14:50:00Z,00000200,00000000,0000.71,0000.37,0000.42,0000.43,0000.23,0000.39,0000.49,0000.59,0000.48,20.8,26.4,08.5,06.1,0674.6,31.2
2021-06-06T14:51:00Z,00000200,00000000,0001.02,0000.38,0000.20,0000.19,0000.25,0000.05,0000.70,0000.46,0000.25,20.8,26.4,08.4,06.0,0674.6,31.2
2021-06-06T14:52:00Z,00000200,00000000,0000.68,0000.03,0000.04,0000.35,0000.03,-000.06,0000.01,0000.03,0000.08,20.8,26.4,08.5,06.0,0674.6,31.2
2021-06-06T14:53:00Z,00000200,00000000,0000.41,0000.64,0000.02,0000.20,0000.58,0000.05,0000.62,0000.78,0000.35,20.8,26.4,08.4,05.9,0674.6,31.2
2021-06-06T14:54:00Z,00000200,00000000,0000.78,0000.38,-000.19,0000.51,0000.36,-000.13,0000.54,0000.15,0000.07,20.8,26.4,08.5,06.0,0674.6,31.2
2021-06-06T14:55:00Z,00000200,00000000,0000.05,0000.36,0000.35,0000.02,0000.37,-000.24,0000.53,0000.65,0000.50,20.8,26.4,08.4,06.0,0674.6,31.2
2021-06-06T14:56:00Z,00000200,00000000,0000.07,0000.15,0000.23,0000.24,0000.36,0000.22,0000.47,0000.45,0000.57,20.8,26.4,08.5,06.1,0674.6,31.2
2021-06-06T14:57:00Z,00000200,40000000,,,,,,,-000.14,-000.13,0000.02,20.8,26.5,08.9,06.3,0674.6,31.2
2021-06-06T14:58:00Z,00000200,60000000,,,,,,,-000.15,-000.04,-000.13,20.7,26.5,08.5,05.9,0673.6,31.2
2021-06-06T14:59:00Z,00000200,20000000,,,,,,,0000.27,0000.14,0000.09,20.7,26.6,08.4,05.9,0673.6,31.2
